Leadville, CO

2:16 AM MST on November 20, 2019 (GMT -0700)
Lake County

Weather History for KLXV - September, 2019

Change the Weather History Date:

Friday, September 27, 2019

  Actual Average Record
Temperature  
Mean Temperature 50 °F -  
Max Temperature 62 °F 57 °F 72 °F (2010)
Min Temperature 38 °F 28 °F 8 °F (1996)
Degree Days  
Heating Degree Days 15 23  
Month to date heating degree days 403 506  
Since 1 July heating degree days 996 1228  
Cooling Degree Days 0 0  
Month to date cooling degree days 0 0  
Year to date cooling degree days 0 0  
Moisture  
Dew Point 29 °F    
Average Humidity 47    
Maximum Humidity 70    
Minimum Humidity 23    
Precipitation  
Precipitation T in 0.03 in 0.27 in (2005)
Month to date precipitation 0.31 1.00  
Year to date precipitation 12.85 9.95  
Sea Level Pressure  
Sea Level Pressure 29.65 in    
Wind  
Wind Speed 8 mph (NNW)    
Max Wind Speed 22 mph    
Max Gust Speed 31 mph    
Visibility 10 miles    
Events Rain    
T = Trace of Precipitation, MM = Missing Value Source: NWS Daily Summary

Daily Weather History Graph

Daily Weather History Graph

Search for Another Location

Airport or City:

Astronomy

Sep. 27, 2019 Rise Set
Actual Time 6:57 AM MDT 6:54 PM MDT
Civil Twilight 6:30 AM MDT 7:21 PM MDT
Nautical Twilight 5:59 AM MDT 7:52 PM MDT
Astronomical Twilight 5:28 AM MDT 8:23 PM MDT
Moon 5:23 AM MDT (9/27) 6:46 PM MDT (9/27)
Length of Visible Light 12h 50m
Length of Day
11h 57m
Waning Crescent, 2% of the Moon is Illuminated
Sep 27
Waning Crescent
Sep 28
New
Oct 5
First Quarter
Oct 13
Full
Oct 21
Last Quarter

Hourly Weather History & Observations

Time (MDT) Temp. Windchill Dew Point Humidity Pressure Visibility Wind Dir Wind Speed Gust Speed Precip Events Conditions
12:53 AM 46.9 °F - 30.0 °F 52% 29.64 in 10.0 mi NNE 8.1 mph - N/A   Clear
1:53 AM 46.0 °F 42.5 °F 32.0 °F 58% 29.65 in 10.0 mi North 6.9 mph - N/A   Clear
2:53 AM 46.9 °F - 32.0 °F 56% 29.65 in 10.0 mi NW 9.2 mph - N/A   Clear
3:53 AM 42.1 °F 37.1 °F 30.0 °F 62% 29.68 in 10.0 mi NNE 8.1 mph - N/A   Partly Cloudy
4:53 AM 42.1 °F 38.4 °F 30.0 °F 62% 29.66 in 10.0 mi North 5.8 mph - N/A   Clear
5:53 AM 39.9 °F 35.8 °F 30.9 °F 70% 29.70 in 10.0 mi NNE 5.8 mph - N/A   Clear
6:53 AM 39.9 °F 34.5 °F 30.0 °F 68% 29.70 in 10.0 mi NNE 8.1 mph - N/A   Clear
7:53 AM 43.0 °F 38.8 °F 30.9 °F 62% 29.71 in 10.0 mi ENE 6.9 mph - N/A   Clear
8:53 AM 52.0 °F - 34.0 °F 50% 29.66 in 10.0 mi North 8.1 mph - N/A   Scattered Clouds
9:53 AM 55.0 °F - 33.1 °F 43% 29.66 in 10.0 mi North 8.1 mph - N/A   Clear
10:53 AM 54.0 °F - 30.9 °F 41% 29.67 in 10.0 mi NNW 9.2 mph 19.6 mph N/A   Mostly Cloudy
11:53 AM 57.9 °F - 27.0 °F 31% 29.63 in 10.0 mi NW 15.0 mph 24.2 mph N/A   Mostly Cloudy
12:53 PM 57.9 °F - 26.1 °F 30% 29.60 in 10.0 mi West 18.4 mph 27.6 mph N/A   Scattered Clouds
1:53 PM 60.1 °F - 24.1 °F 25% 29.59 in 10.0 mi WNW 15.0 mph 27.6 mph N/A   Clear
2:53 PM 62.1 °F - 24.1 °F 23% 29.55 in 10.0 mi WNW 11.5 mph - N/A   Clear
3:53 PM 57.0 °F - 26.1 °F 30% 29.61 in 10.0 mi WSW 10.4 mph 21.9 mph 0.00 in Rain Light Rain
4:53 PM 57.0 °F - 25.0 °F 29% 29.61 in 10.0 mi West 9.2 mph - 0.00 in   Mostly Cloudy
5:53 PM 55.9 °F - 26.1 °F 32% 29.65 in 10.0 mi WSW 9.2 mph 19.6 mph N/A   Partly Cloudy
6:53 PM 52.0 °F - 27.0 °F 38% 29.68 in 10.0 mi Calm Calm - N/A   Clear
7:53 PM 48.9 °F - 30.0 °F 48% 29.70 in 10.0 mi NE 6.9 mph - N/A   Overcast
8:53 PM 48.0 °F - 28.9 °F 48% 29.67 in 10.0 mi NE 4.6 mph - N/A   Mostly Cloudy
9:53 PM 46.9 °F - 30.0 °F 52% 29.66 in 10.0 mi NNW 4.6 mph - N/A   Overcast
10:53 PM 46.9 °F - 32.0 °F 56% 29.65 in 10.0 mi Calm Calm - N/A   Overcast
11:53 PM 44.1 °F 42.5 °F 30.0 °F 58% 29.66 in 10.0 mi ENE 3.5 mph - N/A   Overcast